This is the latest recevied weather packets stored in our database for station/object W2IRT. If no packets are shown the sender has not sent any weather packets the latest 10 day(s).
| Time | Temp. | Humidity | Pressure | Rain* | Wind** | Luminosity | Snow |
|---|---|---|---|---|---|---|---|
| 1777474816 | 17.78° C | 45% | 1014.2 hPa | 0 mm | - | - | - |
| 1777474516 | 17.78° C | 45% | 1014.1 hPa | 0 mm | - | - | - |
| 1777474216 | 17.78° C | 45% | 1014.1 hPa | 0 mm | - | - | - |
| 1777473916 | 17.78° C | 42% | 1014.4 hPa | 0 mm | - | - | - |
| 1777473616 | 17.78° C | 43% | 1014.3 hPa | 0 mm | - | - | - |
| 1777473316 | 17.78° C | 44% | 1014.2 hPa | 0 mm | - | - | - |
| 1777473016 | 17.78° C | 41% | 1014.2 hPa | 0 mm | - | - | - |
| 1777472716 | 17.22° C | 44% | 1014.2 hPa | 0 mm | - | - | - |
| 1777472416 | 17.22° C | 43% | 1014.2 hPa | 0 mm | - | - | - |
| 1777472116 | 16.67° C | 43% | 1014.2 hPa | 0 mm | - | - | - |
| 1777471816 | 16.67° C | 46% | 1014.4 hPa | 0 mm | - | - | - |
| 1777471516 | 16.11° C | 47% | 1014.3 hPa | 0 mm | - | - | - |
| 1777471216 | 16.11° C | 44% | 1014.5 hPa | 0 mm | - | - | - |
| 1777470916 | 16.11° C | 46% | 1014.5 hPa | 0 mm | - | - | - |
| 1777470616 | 16.11° C | 47% | 1014.6 hPa | 0 mm | - | - | - |
| 1777470316 | 15.56° C | 46% | 1014.5 hPa | 0 mm | - | - | - |
| 1777470016 | 15.56° C | 48% | 1014.6 hPa | 0 mm | - | - | - |
| 1777469716 | 15.56° C | 48% | 1014.8 hPa | 0 mm | - | - | - |
| 1777469416 | 15° C | 48% | 1014.9 hPa | 0 mm | - | - | - |
| 1777469116 | 15° C | 50% | 1014.9 hPa | 0 mm | - | - | - |
| 1777468816 | 15° C | 52% | 1015 hPa | 0 mm | - | - | - |
| 1777468516 | 14.44° C | 52% | 1015 hPa | 0 mm | - | - | - |
| 1777468216 | 14.44° C | 51% | 1014.9 hPa | 0 mm | - | - | - |
| 1777467916 | 14.44° C | 53% | 1014.9 hPa | 0 mm | - | - | - |
| 1777467616 | 14.44° C | 53% | 1014.9 hPa | 0 mm | - | - | - |
* Rain latest hour (hover to see other rain measurements)
** Current wind speed in m/s (hover to see current wind gust speed)